Lapse_Rate
7.6 7.4 7.1 7.2 7.4 7.2 6.9 5.6 6.2 5.8 5.0 5.3 5.4 5.3 5.4 5.7 5.8 5.9 6.2 5.9 6.1 6.5 6.6 6.4 6.3 6.4 6.4 6.4 6.4 6.5 6.5 6.6 6.5 6.5 6.5 6.3 6.1 6.1 6.1 6.3 6.5 6.7 6.6 6.5 6.4 6.4 6.5 6.6 6.5
7.1 7.1 7.0 7.3 7.2 7.0 6.5 6.0 6.2 5.9 5.6 5.5 5.5 5.4 5.7 5.7 6.3 6.5 6.2 6.3 6.4 6.5 6.4 6.3 6.2 6.2 6.2 6.3 6.3 6.3 6.3 6.3 6.3 6.3 6.3 6.3 6.3 6.4 6.3 6.3 6.3 6.4 6.5 6.5 6.4 6.4 6.5 6.5 6.4
6.7 6.8 7.0 7.0 6.5 6.9 6.4 6.0 6.3 5.9 5.7 5.4 5.7 5.8 6.1 5.9 6.5 6.5 6.1 6.0 6.4 6.5 6.4 6.3 6.4 6.4 6.3 6.4 6.4 6.5 6.5 6.5 6.4 6.4 6.3 6.2 6.2 6.3 6.3 6.4 6.3 6.1 6.2 6.2 6.2 6.2 6.3 6.4 6.5
6.3 6.4 6.6 6.4 5.9 6.6 6.3 6.0 6.1 6.4 6.2 5.7 6.0 6.0 5.9 6.4 6.6 6.6 5.9 5.8 6.5 6.4 6.4 6.4 6.5 6.5 6.5 6.6 6.5 6.5 6.5 6.6 6.7 6.7 6.8 6.8 6.7 6.6 6.6 6.6 6.5 6.5 6.5 6.5 6.5 6.4 6.2 6.3 6.3
6.6 6.9 6.9 5.0 5.2 5.4 5.4 5.5 5.8 6.1 6.6 6.3 6.1 6.3 6.4 6.7 6.7 6.7 6.6 6.3 6.2 6.3 6.4 6.4 6.4 6.2 6.2 6.3 6.3 6.3 6.5 6.6 6.5 6.6 6.6 6.5 6.5 6.5 6.5 6.5 6.5 6.4 6.3 6.3 6.3 6.3 6.5 6.7 6.6
6.8 7.1 6.5 5.2 5.1 5.4 5.5 5.6 5.9 6.2 6.7 6.6 6.2 6.3 6.7 7.0 7.0 6.6 6.3 6.4 6.3 6.4 6.4 6.5 6.3 6.3 6.3 6.3 6.4 6.4 6.6 6.4 6.4 6.4 6.5 6.4 6.3 6.4 6.5 6.5 6.5 6.4 6.3 6.3 6.2 6.1 6.0 6.1 6.3
7.3 7.5 6.1 5.8 5.4 5.5 5.8 5.9 6.2 6.7 6.8 6.7 6.6 6.6 6.9 7.1 6.7 6.3 6.4 6.4 6.2 6.2 6.2 6.4 6.3 6.2 6.3 6.4 6.4 6.4 6.5 6.4 6.3 6.3 6.3 6.3 6.2 6.1 6.2 6.4 6.4 6.5 6.3 6.3 6.3 6.2 6.0 6.0 6.0
6.9 7.1 5.7 5.4 5.4 5.5 5.9 6.1 6.2 6.6 6.7 6.8 6.8 6.8 7.0 6.9 6.5 6.5 6.1 6.2 6.0 6.1 6.3 6.5 6.6 6.6 6.4 6.5 6.6 6.7 6.6 6.5 6.4 6.4 6.5 6.4 6.2 6.1 6.1 6.1 6.2 6.3 6.4 6.4 6.4 6.2 6.1 6.1 5.9
6.7 6.8 6.4 6.2 6.1 6.1 5.7 5.8 6.3 6.8 7.1 7.1 6.9 6.7 6.8 6.9 6.7 6.4 6.1 6.1 6.2 6.4 6.6 6.8 6.8 6.5 6.1 6.3 6.4 6.3 6.4 6.4 6.4 6.3 6.5 6.5 6.5 6.5 6.4 6.2 6.0 5.9 6.0 6.0 6.2 6.2 6.1 6.1 6.0
6.7 7.2 6.9 6.6 6.3 6.0 5.8 5.4 6.0 6.2 6.8 6.8 6.7 6.7 7.0 6.7 6.2 6.1 6.0 6.3 6.6 6.8 6.8 6.7 6.4 6.1 6.2 6.0 5.8 5.7 5.8 5.8 5.9 6.1 6.2 6.3 6.2 6.3 6.4 6.3 6.2 6.1 6.0 5.9 5.8 5.8 5.9 6.0 6.1
7.4 7.3 6.8 6.4 6.2 5.6 5.7 5.5 5.8 5.6 6.0 6.3 6.5 6.5 6.3 6.1 6.2 6.3 6.5 6.6 6.7 6.5 6.4 6.3 6.0 5.9 5.8 5.8 5.8 5.9 5.8 5.7 5.7 5.7 5.8 5.9 5.8 5.9 5.9 6.0 6.2 6.3 6.2 6.2 6.1 6.0 6.0 5.9 5.8
7.4 6.9 6.6 6.7 6.4 5.9 5.7 5.8 5.9 6.1 6.4 6.7 6.4 6.1 6.2 6.5 6.4 6.4 6.5 6.4 6.3 6.0 5.9 5.9 5.8 5.7 5.7 5.7 5.7 5.5 5.4 5.4 5.4 5.4 5.5 5.5 5.5 5.6 5.6 5.7 5.8 6.0 6.1 6.1 6.2 6.2 6.3 6.4 6.3
7.2 7.0 6.4 6.4 6.5 6.2 6.4 6.2 6.1 6.2 6.3 6.3 6.4 6.6 6.6 6.5 6.3 6.2 6.3 6.1 6.1 5.9 5.8 5.7 5.6 5.6 5.7 5.6 5.3 5.3 5.3 5.3 5.3 5.3 5.3 5.3 5.4 5.4 5.4 5.5 5.6 5.5 5.6 5.7 5.9 6.0 6.1 6.2 6.3
6.9 6.8 6.5 6.1 6.3 6.5 6.4 6.4 6.2 6.4 6.4 6.5 6.7 6.6 6.4 6.2 6.0 6.1 6.0 5.9 5.8 5.7 5.6 5.6 5.6 5.6 5.6 5.5 5.4 5.3 5.3 5.2 5.2 5.1 5.0 5.1 5.1 5.1 5.2 5.3 5.4 5.4 5.5 5.5 5.4 5.5 5.7 5.9 6.1
6.6 6.7 6.2 6.2 6.0 6.3 6.4 6.4 6.5 6.5 6.7 6.8 6.7 6.4 6.1 6.0 6.1 6.1 5.9 5.7 5.7 5.7 5.6 5.5 5.5 5.5 5.4 5.3 5.3 5.2 5.2 5.3 5.2 5.2 5.2 5.2 5.2 5.1 5.2 5.2 5.3 5.4 5.4 5.3 5.2 5.2 5.4 5.5 5.8
6.2 6.4 6.0 5.9 6.0 6.2 6.2 6.4 6.6 6.6 6.6 6.4 6.5 6.1 6.0 6.0 6.1 6.0 5.7 5.5 5.5 5.6 5.6 5.5 5.4 5.3 5.3 5.2 5.1 5.1 5.2 5.2 5.1 5.1 5.0 5.1 5.1 5.2 5.3 5.4 5.4 5.5 5.5 5.5 5.3 4.9 4.9 5.3 5.4
6.0 5.8 5.9 5.8 5.9 6.3 6.3 6.5 6.6 6.7 6.6 6.4 6.4 6.1 5.8 5.9 5.9 5.7 5.6 5.5 5.6 5.7 5.6 5.6 5.6 5.5 5.3 5.0 4.9 5.0 5.0 5.0 5.0 4.9 5.0 5.1 5.1 5.1 5.1 5.2 5.4 5.4 5.4 5.4 5.5 5.4 5.0 4.8 5.2
6.3 6.1 6.1 6.3 6.3 6.3 6.3 6.4 6.5 6.4 6.4 6.2 6.2 6.1 6.0 5.9 5.8 5.9 5.8 5.9 5.9 5.8 5.7 5.6 5.5 5.4 5.2 5.1 5.0 5.1 4.9 4.8 4.8 4.8 4.8 4.8 4.8 4.8 4.8 4.9 4.8 4.9 5.0 4.9 4.9 5.1 5.2 4.9 4.6
6.7 6.7 6.5 6.5 6.4 6.3 6.2 6.2 6.2 6.3 6.4 6.3 6.3 6.4 6.3 6.1 6.2 6.1 6.0 5.8 5.8 5.7 5.5 5.5 5.4 5.3 5.2 5.1 5.1 5.1 5.1 5.0 5.0 4.9 4.8 4.7 4.7 4.8 4.7 4.7 4.8 4.8 4.8 4.8 4.9 5.1 5.1 5.1 4.8
7.0 7.1 6.8 6.9 6.4 6.5 6.3 6.4 6.2 6.6 7.0 6.5 6.5 6.7 6.6 6.5 6.3 6.1 6.0 6.0 5.8 5.7 5.5 5.5 5.4 5.4 5.2 5.1 5.0 5.1 5.1 5.2 5.2 5.1 5.0 4.9 4.9 5.0 5.0 5.0 5.1 5.3 5.3 5.2 5.1 4.8 5.0 4.9 5.0
7.5 7.1 7.1 7.2 6.9 6.6 6.4 7.0 7.2 7.1 7.1 7.0 7.1 7.0 6.9 6.8 6.3 6.2 5.9 5.8 5.6 5.4 5.3 5.3 5.3 5.3 5.3 5.1 5.0 5.0 5.0 5.0 5.0 5.0 5.0 4.8 4.8 4.9 4.9 5.1 5.2 5.3 5.3 5.5 5.6 5.3 4.9 5.1 5.0
7.5 7.3 7.1 7.0 6.9 6.6 6.5 6.5 7.4 7.4 7.3 7.4 7.3 7.4 7.1 6.9 6.6 6.3 6.1 5.8 5.6 5.5 5.5 5.4 5.5 5.5 5.4 5.2 4.9 4.9 4.8 4.7 4.7 4.6 4.5 4.7 4.8 4.7 4.6 4.8 4.7 4.8 4.8 4.9 5.0 5.2 5.1 4.9 4.8
7.5 7.5 7.2 6.7 6.7 6.5 6.5 6.1 7.3 7.5 7.7 7.7 7.7 7.5 7.4 7.2 6.9 6.6 6.3 5.9 5.7 5.6 5.5 5.4 5.5 5.5 5.2 4.9 4.7 4.6 4.5 4.4 4.4 4.5 4.7 4.7 4.6 4.4 4.4 4.4 4.5 4.6 4.5 4.5 4.6 4.4 4.4 4.8 5.1
7.3 7.3 7.1 6.8 6.4 5.8 6.7 6.5 7.3 7.9 7.8 7.7 7.6 7.6 7.7 7.6 7.3 6.9 6.6 6.5 6.3 5.9 5.5 5.5 5.5 5.5 5.2 4.8 4.6 4.4 4.4 4.4 4.5 4.5 4.5 4.3 4.3 4.2 4.3 4.3 4.3 4.4 4.6 4.5 4.6 4.6 4.5 4.5 4.5
7.1 7.2 6.5 5.6 4.5 5.2 6.4 5.7 7.2 7.4 7.2 7.4 7.5 7.5 7.4 7.5 7.4 7.1 6.9 6.7 6.5 6.0 5.7 5.6 5.5 5.3 5.2 5.0 4.9 4.8 4.7 4.7 4.7 4.5 4.4 4.2 4.2 4.3 4.4 4.5 4.6 4.7 4.7 4.6 4.5 4.4 4.3 4.4 4.3
7.1 6.9 7.0 5.8 4.2 5.5 6.1 6.0 7.1 7.4 7.4 7.3 7.4 7.5 7.7 7.7 7.4 7.2 6.8 6.6 6.4 6.1 5.8 5.7 5.5 5.4 5.3 5.1 5.0 5.0 4.8 4.8 4.8 4.7 4.5 4.3 4.3 4.5 4.5 4.7 4.7 4.7 4.6 4.5 4.5 4.4 4.3 4.3 4.2
7.1 6.9 7.2 7.0 5.4 5.1 6.5 6.7 6.9 7.2 7.3 7.4 7.5 7.6 7.5 7.5 7.5 7.5 7.3 6.9 6.7 6.5 6.1 5.9 5.9 5.9 5.7 5.4 5.3 5.2 5.1 5.1 5.1 4.7 4.5 4.3 4.2 4.5 4.7 4.8 4.7 4.5 4.4 4.5 4.5 4.4 4.4 4.3 4.3
7.0 7.1 6.8 6.6 4.5 4.7 5.5 6.2 7.0 6.9 7.2 7.4 7.5 7.6 7.5 7.4 7.3 7.1 7.0 6.8 6.6 6.5 6.2 6.2 6.2 6.2 6.0 5.5 5.3 5.3 5.3 5.2 5.0 4.6 4.4 4.3 4.4 4.6 4.7 4.7 4.5 4.4 4.4 4.4 4.3 4.2 4.2 4.2 4.2
6.6 6.4 6.6 6.6 6.2 5.0 3.9 6.3 6.8 6.8 7.0 7.1 7.0 7.2 7.1 7.0 7.1 7.2 7.3 7.1 6.7 6.4 6.2 6.2 6.2 6.0 5.9 5.7 5.6 5.5 5.5 5.1 4.8 4.4 4.3 4.3 4.5 4.7 4.7 4.5 4.5 4.4 4.4 4.4 4.3 4.2 4.2 4.2 4.2
6.5 6.3 6.2 6.3 6.0 5.9 5.1 5.8 6.7 6.9 6.6 6.6 6.6 6.7 6.9 6.8 6.8 6.8 6.9 7.1 7.1 6.7 6.5 6.4 6.3 6.2 6.2 5.8 5.8 5.7 5.3 4.8 4.6 4.6 4.4 4.5 4.6 4.6 4.5 4.5 4.5 4.6 4.5 4.4 4.4 4.3 4.2 4.1 4.0
Wind_Speed
5 8 3 4 5 6 3 3 4 8 5 3 3 4 7 4 4 4 3 3 6 7 10 12 14 13 14 15 16 16 16 16 16 17 18 17 17 18 18 18 19 19 17 15 14 12 12 11 9
11 4 3 2 5 4 1 3 4 5 12 11 8 5 7 4 3 1 2 2 5 6 8 11 11 12 14 15 15 14 14 13 13 13 13 14 15 15 15 16 16 16 17 16 16 15 15 15 14
5 4 4 4 4 3 3 3 12 13 7 4 4 5 2 2 1 2 4 3 5 8 11 10 11 12 16 17 16 16 17 17 16 15 10 11 12 13 15 15 14 14 14 13 12 11 11 12 13
3 4 4 5 10 5 4 13 13 10 6 7 6 5 2 3 2 5 7 5 8 9 11 12 14 16 19 18 18 16 16 16 17 18 16 14 15 16 15 17 17 15 15 15 14 11 11 11 11
4 4 5 5 6 5 9 10 2 5 5 5 2 3 3 2 3 6 6 11 8 11 12 12 18 19 19 20 19 17 18 18 18 19 18 15 17 18 18 20 20 19 17 17 19 15 12 12 11
4 3 5 5 4 3 3 4 2 5 5 6 5 6 2 3 7 6 11 10 13 10 12 13 13 17 19 19 19 19 19 18 19 18 18 17 20 22 21 20 21 20 20 20 20 19 18 15 12
7 4 3 8 5 3 2 3 4 4 6 4 5 5 2 6 4 7 8 11 14 16 16 14 15 17 18 20 21 21 21 21 20 19 19 20 22 22 22 22 22 20 20 20 20 19 19 19 18
5 4 6 3 4 2 2 3 1 4 4 2 2 4 3 3 6 7 7 6 11 15 17 16 19 22 22 22 19 20 21 21 21 23 22 19 20 21 24 21 22 21 21 21 21 22 21 19 20
4 5 4 7 8 6 5 3 2 2 6 4 2 3 4 8 6 7 5 6 6 6 12 16 16 17 17 19 16 20 19 20 20 19 20 21 20 20 20 23 22 23 21 21 21 21 21 20 18
5 4 6 5 6 6 5 3 6 4 3 4 5 6 8 6 6 7 6 5 4 5 6 11 13 14 17 13 18 19 20 22 22 23 23 22 22 19 19 21 23 21 22 22 22 21 20 18 15
4 5 6 3 8 6 7 3 4 7 3 4 8 6 5 6 6 7 5 4 3 2 3 8 10 10 12 14 15 16 18 21 20 22 22 23 21 21 20 18 19 19 21 19 19 19 17 16 16
7 5 6 5 7 5 6 6 5 3 4 8 9 7 7 9 7 6 5 4 4 4 3 6 8 10 11 13 14 13 16 19 18 20 22 22 16 17 18 17 19 17 20 18 18 15 18 18 16
9 4 6 7 10 5 9 5 7 3 7 9 8 8 9 8 7 5 5 3 5 4 3 4 7 7 9 12 12 14 15 16 17 19 20 20 18 14 15 16 17 16 20 18 16 16 16 15 16
6 12 5 6 5 4 8 3 3 4 4 8 8 7 7 9 8 5 4 4 4 4 4 3 6 6 8 10 9 10 12 13 15 15 15 17 17 16 15 15 16 17 20 20 17 14 13 12 12
6 10 7 5 4 2 3 2 3 5 6 8 7 7 7 7 7 7 6 6 6 4 3 3 5 5 7 7 7 9 11 12 12 12 14 14 14 15 15 13 13 16 20 18 16 16 16 14 14
5 5 4 2 2 2 4 4 2 7 7 7 6 6 7 6 7 5 6 6 6 4 3 1 3 4 5 5 5 7 8 9 9 10 11 12 12 12 13 12 11 15 19 16 11 10 8 8 6
6 3 2 1 5 3 4 3 4 6 7 7 6 7 7 6 5 6 7 7 7 5 5 2 2 3 6 6 4 5 5 6 6 6 8 9 10 10 11 12 13 16 15 14 8 5 4 7 8
5 4 2 4 5 4 1 6 4 7 8 9 8 8 8 8 10 8 9 7 6 5 3 2 3 6 7 6 3 2 2 2 3 5 7 8 9 11 13 15 15 17 10 9 7 5 3 2 3
7 5 5 2 3 4 6 6 9 8 6 9 9 9 10 11 7 6 7 6 5 2 3 3 4 5 3 1 1 1 1 1 3 8 10 10 10 12 14 14 15 16 6 4 7 3 4 4 4
5 3 3 3 3 6 3 10 10 9 12 14 13 11 12 6 7 8 8 7 7 5 6 4 5 5 3 2 2 2 2 1 1 7 14 15 11 14 13 15 12 14 7 8 6 5 3 3 4
3 4 5 4 4 1 1 7 4 5 5 6 8 11 13 14 12 9 9 9 7 7 7 7 6 6 4 6 4 3 3 3 3 4 6 15 19 20 19 18 15 13 12 6 4 7 6 3 3
3 7 6 8 4 2 2 5 5 3 7 11 12 12 12 11 8 8 9 9 9 9 7 7 7 6 5 8 3 3 2 2 2 2 4 12 19 18 19 19 18 15 12 7 6 10 4 4 4
2 5 6 4 4 3 1 1 7 2 6 13 18 16 16 15 14 14 15 14 8 8 8 8 7 6 4 4 5 5 5 4 3 2 5 8 14 17 18 18 17 15 12 12 11 6 7 5 3
6 6 8 5 3 2 5 5 5 4 6 4 10 17 17 16 15 14 12 9 8 7 7 7 8 6 5 5 5 7 8 6 4 3 4 4 5 10 15 15 15 14 13 11 10 11 8 5 4
6 6 3 3 3 5 0 0 9 5 7 6 8 13 16 16 16 15 14 13 12 10 9 7 7 6 6 5 6 7 7 7 7 5 4 4 3 3 7 11 11 10 12 13 12 9 6 5 4
3 5 5 5 3 4 1 5 6 2 6 7 7 7 8 12 15 17 18 17 15 14 10 9 8 6 5 6 7 6 6 4 4 5 4 4 3 3 6 8 10 10 12 12 12 7 5 7 4
4 3 3 6 3 2 4 7 7 8 8 8 7 2 7 9 13 17 16 17 15 13 11 11 7 6 6 6 6 6 6 6 5 5 7 4 4 5 5 6 7 8 9 10 10 4 3 4 4
1 4 3 3 2 4 4 5 5 8 10 10 9 8 5 5 7 10 12 14 12 11 8 8 8 9 8 7 6 5 6 6 7 7 5 5 4 3 2 3 3 4 5 7 6 3 4 3 3
2 1 5 3 3 4 1 5 5 3 6 9 7 7 7 6 7 6 6 6 7 10 10 10 10 11 8 6 5 6 5 5 7 4 4 4 3 3 1 1 1 0 2 4 2 1 3 3 4
2 4 5 4 4 1 2 6 3 2 6 6 7 6 5 2 3 6 8 10 10 11 11 11 10 9 7 6 6 6 5 5 5 4 5 4 4 4 4 4 3 3 3 3 2 1 2 2 4
Wind_Direction
101 106 52 13 48 60 45 61 8 119 109 42 41 56 100 46 28 91 338 69 45 28 16 17 24 29 35 36 36 33 35 34 37 32 28 33 38 38 34 28 26 32 41 52 51 49 49 48 44
118 112 40 28 79 73 38 77 83 100 119 118 80 69 53 63 40 314 2 52 56 49 35 29 31 35 40 41 40 39 38 37 39 36 39 39 41 41 36 31 29 30 36 42 45 40 36 29 20
114 62 71 63 64 93 101 123 110 111 105 101 95 46 38 69 286 10 332 135 109 62 50 37 36 43 44 40 38 36 29 28 31 32 46 60 56 50 41 33 29 29 30 34 37 37 37 35 26
119 24 34 66 86 20 87 116 115 115 94 68 113 63 76 27 18 339 342 138 82 63 46 41 39 46 53 48 43 40 37 37 38 36 42 50 46 38 38 34 25 22 23 21 18 16 19 27 24
50 68 64 80 67 71 94 126 208 116 98 88 115 121 64 63 291 10 21 42 43 39 35 42 46 51 55 48 44 39 40 38 36 40 48 63 56 51 46 39 37 32 25 16 14 15 18 20 16
55 83 83 93 54 55 41 26 73 55 78 123 64 92 70 15 47 24 61 53 42 31 40 53 52 68 56 47 42 40 41 39 38 41 47 52 56 53 50 42 41 32 27 24 19 17 15 23 33
105 72 76 89 110 100 106 50 44 82 116 57 118 108 165 69 47 68 72 62 52 49 47 51 60 67 57 49 44 40 40 38 42 46 47 48 48 48 49 44 42 36 32 28 24 18 18 22 25
102 84 116 142 160 94 50 86 115 67 55 59 29 130 140 110 111 84 60 51 51 42 44 54 67 67 61 54 45 47 42 44 42 44 45 45 47 45 45 42 38 33 31 27 24 22 18 19 19
115 79 153 168 156 151 173 137 45 33 82 69 53 98 133 126 106 74 54 38 31 37 38 51 66 69 64 59 49 54 46 48 47 44 47 48 42 38 37 36 34 29 27 27 25 23 22 20 15
70 95 154 171 150 152 120 130 127 101 82 53 88 59 106 103 104 103 78 61 42 28 20 50 62 73 70 60 58 57 56 58 56 54 54 52 52 45 42 36 32 30 28 27 23 21 20 17 7
40 123 130 2 121 126 118 83 118 128 77 169 146 136 117 121 111 117 108 95 101 45 44 44 69 81 75 63 59 55 56 58 57 58 60 60 53 44 38 32 25 23 22 23 19 15 12 7 8
94 54 121 160 131 122 114 132 74 71 137 138 147 153 142 139 146 141 120 113 106 76 52 59 75 82 76 70 59 56 54 55 48 52 57 59 54 49 43 39 29 24 18 19 17 9 2 6 7
74 93 40 97 99 98 115 94 137 130 153 141 138 126 141 139 138 115 139 133 116 97 73 58 84 89 80 70 60 56 54 55 56 57 58 61 57 51 47 42 38 36 33 26 14 8 8 7 360
88 93 79 37 59 108 105 116 72 236 158 136 141 152 151 150 151 135 164 161 144 134 109 84 84 97 97 78 67 61 62 62 60 57 58 63 64 60 52 43 37 36 35 34 27 11 2 358 1
90 89 68 27 359 98 46 84 221 158 161 152 151 147 157 169 162 179 176 176 172 169 121 128 127 118 107 99 84 68 64 65 60 56 58 63 65 64 61 52 42 36 37 33 30 20 23 21 7
75 60 93 250 214 137 32 270 200 144 160 184 170 167 171 189 193 188 185 183 192 178 148 121 101 143 126 129 105 82 70 66 59 57 59 56 54 55 58 52 40 37 40 32 27 22 23 19 16
24 147 113 196 175 117 54 282 193 169 181 208 200 184 191 204 202 206 217 196 186 185 165 157 113 124 145 152 133 95 71 57 47 46 48 48 46 39 40 38 30 26 30 30 25 21 43 19 5
160 136 193 181 201 101 170 263 246 194 192 210 203 201 201 203 214 201 205 201 197 177 165 149 135 132 142 138 126 75 33 11 19 20 15 19 26 29 31 28 22 20 14 10 8 19 6 37 344
123 134 160 234 196 129 211 265 238 211 195 217 213 199 206 214 217 206 203 209 190 190 208 187 153 158 146 138 127 359 270 310 357 4 353 351 4 18 24 19 14 13 19 352 6 344 358 354 349
116 108 201 79 129 161 168 260 239 194 218 209 202 210 213 204 193 199 203 205 195 193 211 216 203 175 186 166 189 169 174 65 56 22 31 28 34 37 37 35 24 22 16 9 3 16 336 323 12
112 165 189 146 131 77 79 291 253 244 230 197 213 212 211 203 199 198 196 200 201 209 207 209 206 187 180 166 129 83 66 53 34 19 33 40 57 56 52 46 40 32 30 19 355 5 11 337 321
249 183 133 132 107 217 104 280 281 228 245 222 222 212 211 203 203 200 190 202 197 215 200 210 199 193 182 165 137 130 131 113 76 90 62 54 55 54 53 51 45 37 26 23 4 9 1 359 359
236 123 118 104 74 81 254 40 270 1 260 230 221 214 209 203 195 195 198 201 194 196 199 206 198 203 187 169 149 133 106 112 120 95 95 69 58 58 58 58 53 42 30 21 21 14 17 21 22
167 73 49 61 70 356 240 175 275 214 217 269 221 219 210 199 199 201 199 180 195 189 197 204 195 208 175 167 153 138 136 140 123 98 81 68 61 55 58 59 53 46 38 26 21 26 27 17 24
62 59 14 358 7 230 129 142 253 285 274 238 245 221 211 196 193 193 183 184 194 189 197 199 194 198 183 167 140 135 129 126 120 113 102 88 60 44 43 59 50 43 36 30 25 24 24 12 15
150 149 155 213 196 268 319 238 252 315 315 302 270 230 192 186 194 194 192 191 192 190 190 189 184 172 162 139 125 114 115 111 106 110 109 105 96 99 84 66 55 47 40 31 25 13 358 18 8
187 188 165 105 23 55 250 297 323 352 342 356 359 151 198 191 196 198 192 191 184 183 185 184 156 134 134 128 116 107 107 111 118 107 104 103 118 115 79 63 58 47 45 28 13 2 359 14 358
100 138 73 357 153 251 282 276 240 348 330 338 345 329 273 217 203 199 196 189 181 168 143 133 131 140 132 116 110 113 117 116 115 117 119 112 122 111 81 64 60 59 39 20 24 17 26 25 353
60 38 46 109 124 183 256 260 206 257 304 311 315 322 290 228 201 186 172 156 133 122 125 120 120 125 118 114 111 116 114 116 120 119 131 139 175 197 228 237 254 62 358 6 61 7 15 8 339
189 173 143 121 244 237 144 277 226 252 301 328 324 342 341 326 142 128 125 126 122 118 118 122 120 114 114 118 119 115 118 129 136 152 166 188 215 248 260 260 266 260 294 301 198 231 287 302 309